Preview of NWS' New Version of Forecast
This preview is not operational and should not be used for support decisions.

Regional Weather Roundup (RWR)

Issued by National Weather Service (NWS)

                            
000
ASUS43 KLSX 161057
RWRMO 

WEATHER SUMMARY FOR MISSOURI
NATIONAL WEATHER SERVICE SPRINGFIELD MO
600 AM CDT MON SEP 16 2019

NOTE: "FAIR" INDICATES FEW OR NO CLOUDS BELOW 12,000 FEET WITH NO
       SIGNIFICANT WEATHER AND/OR OBSTRUCTIONS TO VISIBILITY.
       CURRENT SKY AND/OR WEATHER CONDITIONS ARE NOT AVAILABLE FOR
       CHILLICOTHE AND FARMINGTON.

MOZ001>031-035>038-043-044-053-054-161200-
...NORTHERN AND WESTERN MISSOURI...
  
CITY           SKY/WX    TMP DP  RH WIND       PRES   REMARKS
KANSAS CTY INT CLEAR     70  68  93 S6        30.07R                  
LEE'S SUMMIT   CLEAR     74  67  78 MISG      30.08R                  
ST JOSEPH      CLEAR     71  67  87 S5        30.05R                  
CHILLICOTHE      N/A     69  68  96 CALM      30.08R                  
     
$$
MOZ066>068-077>081-088>096-101>105-161200-
...SOUTHWEST MISSOURI...
  
CITY           SKY/WX    TMP DP  RH WIND       PRES   REMARKS
SPRINGFIELD    CLEAR     68  65  90 SE6       30.12R                  
               
$$
MOZ032>034-039>042-045>050-055>058-069>072-161200-
...CENTRAL MISSOURI...  
  
CITY           SKY/WX    TMP DP  RH WIND       PRES   REMARKS
COLUMBIA       NOT AVBL                                               
JEFFERSON CITY CLEAR     70  69  97 E5        30.09R FOG              
ROLLA          CLEAR     69  63  81 SW7       30.12R                  
SEDALIA        CLEAR     70  69  97 SW7       30.10R                  
WARRENSBURG    CLEAR     68  66  94 S3        30.08R                  
               
$$
MOZ051-052-059>065-161200-
...EAST CENTRAL MISSOURI...
  
CITY           SKY/WX    TMP DP  RH WIND       PRES   REMARKS
ST LOUIS INTL  PTCLDY    76  66  71 W5        30.08R                  
                   
$$
MOZ072>076-082>087-097>100-106>115-161200-
...SOUTH CENTRAL AND SOUTHEAST MISSOURI...
  
CITY           SKY/WX    TMP DP  RH WIND       PRES   REMARKS
CAPE GIRARDEAU FOG       64  63  96 CALM      30.08S VSB 3/4          
POPLAR BLUFF   FAIR      68  65  90 CALM      30.09R                  
WEST PLAINS    CLEAR     69  65  86 CALM      30.15R FOG              
                                       
$$